Location: Newark
(48.1500°N, 2.9667°W)
Time: 14:58:16
(UTC+00:00)

Transit 2A - Pass Details

Date: 31 January 2020
Orbit: 600 x 959 km, 66.7° (Epoch: 22 February)

Event Time Altitude Azimuth Distance (km) Brightness Sun altitude
Rises 17:50:42 0° 181° (S) 2,883 9.3 -7.3°
Reaches altitude 10° 17:53:15 10° 168° (SSE) 1,956 8.2 -7.7°
Maximum altitude 17:56:50 25° 113° (ESE) 1,212 6.6 -8.3°
Enters shadow 18:00:20 10° 58° (ENE) 1,923 7.5 -8.8°
Drops below altitude 10° 18:00:25 10° 57° (ENE) 1,951 - -8.8°
Sets 18:02:58 0° 44° (NE) 2,875 - -9.2°
